GW4759 Weather Reports


Display with metric or nautical units.
time (UTC)temp
F
wind
direction
speed
MPH
gust
MPH
rain 1hr
in
rain 24hr
in
rain mn
in
humidity
%
barometer
mb
20260906064555 67 0 0.0 0.0 0.00 0.02 0.00 99 1012.0
20260906063051 67 0 0.0 0.0 0.00 0.02 0.00 99 1012.4
20260906061553 67 0 0.0 0.0 0.00 0.02 0.00 99 1012.7
20260906060049 67 0 0.0 0.0 0.00 0.02 0.00 99 1012.7
20260906054605 67 0 0.0 0.0 0.00 0.02 0.00 99 1012.9
20260906053051 68 0 0.0 0.0 0.00 0.02 0.00 99 1013.0
20260906051550 68 0 0.0 0.0 0.00 0.02 0.00 99 1013.1
20260906050055 68 0 0.0 0.0 0.00 0.02 0.00 99 1013.2
20260906044555 68 0 0.0 0.0 0.00 0.02 0.00 99 1013.1
20260906043049 68 0 0.0 0.0 0.00 0.02 0.00 99 1013.4
20260906041550 68 0 0.0 0.0 0.00 0.02 0.00 99 1013.4
20260906040104 69 0 0.0 0.0 0.00 0.02 0.00 99 1013.5
20260906034554 69 0 0.0 1.0 0.00 0.02 0.02 99 1013.3
20260906033059 69 0 0.0 0.0 0.00 0.02 0.02 98 1013.4
20260906031607 69 0 0.0 1.0 0.00 0.02 0.02 98 1013.5
20260906030054 69 0 0.0 1.0 0.00 0.02 0.02 98 1013.5
20260906024601 69 0 0.0 0.0 0.00 0.02 0.02 98 1013.3
20260906023058 70 0 0.0 0.0 0.00 0.02 0.02 98 1013.2
20260906021551 70 0 0.0 1.0 0.00 0.02 0.02 98 1013.3
20260906020051 70 0 0.0 0.0 0.00 0.02 0.02 97 1013.2
20260906014556 70 0 0.0 0.0 0.00 0.02 0.02 97 1013.2
20260906013056 70 0 0.0 0.0 0.00 0.02 0.02 97 1013.1
20260906011554 71 0 0.0 0.0 0.00 0.02 0.02 96 1012.9
20260906010054 71 0 0.0 0.0 0.00 0.02 0.02 96 1012.9
20260906004549 72 0 0.0 0.0 0.00 0.02 0.02 96 1012.7
20260906003054 73 0 0.0 0.0 0.00 0.02 0.02 95 1012.5
20260906001551 73 0 0.0 0.0 0.00 0.02 0.02 93 1012.1
20260906000059 74 0 0.0 0.0 0.00 0.02 0.02 91 1011.9
20260905234551 76 0 0.0 0.0 0.00 0.02 0.02 87 1011.9
20260905233055 78 0 0.0 0.0 0.00 0.02 0.02 85 1011.7
20260905231551 79 0 0.0 1.0 0.00 0.02 0.02 83 1011.6
20260905230051 80 0 0.0 1.0 0.00 0.02 0.02 80 1011.6
20260905224552 81 0 0.0 3.0 0.00 0.02 0.02 78 1011.6
20260905223050 81 304 0.0 1.0 0.00 0.02 0.02 79 1011.8
20260905221557 81 236 0.0 3.0 0.00 0.02 0.02 78 1011.8
20260905220056 81 274 0.0 3.0 0.00 0.02 0.02 78 1012.1
20260905214552 82 229 0.0 5.0 0.00 0.02 0.02 76 1012.1
20260905213058 82 0 0.0 6.0 0.00 0.02 0.02 75 1012.4
20260905211605 82 124 0.0 6.0 0.00 0.02 0.02 74 1012.4
20260905210103 82 147 0.0 3.0 0.00 0.02 0.02 77 1012.2
20260905204554 82 85 1.0 3.0 0.00 0.02 0.02 76 1012.3
20260905203049 81 0 0.0 1.0 0.00 0.02 0.02 80 1012.5
20260905201553 81 0 0.0 2.0 0.00 0.02 0.02 81 1012.7
20260905200110 81 0 0.0 2.0 0.00 0.02 0.02 81 1012.7
20260905194551 82 0 0.0 2.0 0.00 0.02 0.02 78 1012.8
20260905193048 80 0 0.0 2.0 0.00 0.02 0.02 80 1012.6
20260905191556 80 0 0.0 2.0 0.00 0.02 0.02 81 1012.7
20260905190057 81 71 0.0 1.0 0.00 0.02 0.02 79 1012.5
20260905184555 80 0 0.0 1.0 0.01 0.02 0.02 81 1012.2
20260905183056 79 0 0.0 2.0 0.01 0.02 0.02 86 1012.4
20260905181651 77 198 0.0 1.0 0.01 0.02 0.02 83 1013.1
20260905174555 79 129 3.0 4.0 0.01 0.01 0.01 80 1013.8
20260905173100 81 140 3.0 12.0 0.01 0.01 0.01 77 1014.7
20260905171547 88 0 1.0 4.0 0.01 0.01 0.01 73 1014.2
20260905170059 91 66 1.0 4.0 0.00 0.00 0.00 63 1013.8
20260905164552 93 31 1.0 4.0 0.00 0.00 0.00 58 1014.1
20260905163050 94 220 0.0 4.0 0.00 0.00 0.00 62 1014.1
20260905161548 94 49 0.0 3.0 0.00 0.00 0.00 60 1014.2
20260905160056 93 0 0.0 4.0 0.00 0.00 0.00 60 1014.4
20260905154558 92 125 1.0 2.0 0.00 0.00 0.00 59 1014.6
20260905153051 93 259 1.0 5.0 0.00 0.00 0.00 65 1014.3
20260905151606 91 337 0.0 2.0 0.00 0.00 0.00 67 1014.1
20260905150054 91 260 0.0 3.0 0.00 0.00 0.00 66 1014.3
20260905144552 89 212 0.0 4.0 0.00 0.00 0.00 70 1014.3
20260905143052 88 269 0.0 3.0 0.00 0.00 0.00 75 1014.4
20260905141556 87 0 0.0 2.0 0.00 0.00 0.00 78 1014.3
20260905140054 84 280 0.0 2.0 0.00 0.00 0.00 80 1014.2
20260905134558 83 264 1.0 3.0 0.00 0.00 0.00 82 1014.3
20260905133054 81 0 0.0 0.0 0.00 0.00 0.00 87 1014.5
20260905131550 80 0 0.0 0.0 0.00 0.00 0.00 88 1014.6
20260905130055 77 0 0.0 0.0 0.00 0.00 0.00 93 1014.7
20260905124551 75 0 0.0 0.0 0.00 0.00 0.00 96 1014.8
20260905123048 72 0 0.0 0.0 0.00 0.00 0.00 99 1014.7
20260905121554 71 0 0.0 0.0 0.00 0.00 0.00 100 1014.7
20260905120050 70 0 0.0 0.0 0.00 0.00 0.00 100 1014.3
20260905114548 69 0 0.0 0.0 0.00 0.00 0.00 100 1014.3
20260905113057 68 0 0.0 0.0 0.00 0.00 0.00 100 1014.3
20260905111552 68 0 0.0 0.0 0.00 0.00 0.00 100 1014.1
20260905110106 68 0 0.0 0.0 0.00 0.00 0.00 100 1013.8
20260905104548 68 0 0.0 0.0 0.00 0.00 0.00 99 1013.6
20260905103050 68 0 0.0 0.0 0.00 0.00 0.00 99 1013.7
20260905101605 68 0 0.0 0.0 0.00 0.00 0.00 100 1013.6
20260905100051 68 0 0.0 0.0 0.00 0.00 0.00 100 1013.5
20260905094551 68 0 0.0 0.0 0.00 0.00 0.00 99 1013.5
20260905093116 68 0 0.0 0.0 0.00 0.00 0.00 100 1013.5
20260905091604 68 0 0.0 0.0 0.00 0.00 0.00 99 1013.4
20260905090049 68 0 0.0 0.0 0.00 0.00 0.00 99 1013.5
20260905084549 69 0 0.0 0.0 0.00 0.00 0.00 99 1013.6
20260905083059 69 0 0.0 0.0 0.00 0.00 0.00 99 1013.9
20260905081550 69 0 0.0 0.0 0.00 0.00 0.00 99 1014.0
20260905074549 69 0 0.0 0.0 0.00 0.00 0.00 99 1014.1
20260905073053 69 0 0.0 0.0 0.00 0.00 0.00 99 1014.2
20260905071551 69 0 0.0 0.0 0.00 0.00 0.00 99 1014.3